• In Belarus
  • List of Countries
  • For 7 days
  • Water Temperature
  • Satellite Maps
  • Weather Map
  • Weather Widgets
  • user-avatar
    Login

    Hourly Weather Verhovina

    Today, 23 June, Saturday

    Time Temperature Precipitation Wind Pressure Humidity
    00:00 +9°C° 3.2 mm 2 mps 695 mmHg 100%
    01:00 +9°C° 4.4 mm 2 mps 695 mmHg 100%
    02:00 +9°C° 1.5 mm 2 mps 695 mmHg 100%
    03:00 +9°C° 0.6 mm 1 mps 695 mmHg 100%
    04:00 +10°C° 0 mm 1 mps 695 mmHg 100%
    05:00 +8°C° 0 mm 3 mps 695 mmHg 100%
    06:00 +8°C° 0 mm 2 mps 695 mmHg 100%
    07:00 +9°C° 0.2 mm 1 mps 695 mmHg 100%
    08:00 +8°C° 0.7 mm 2 mps 695 mmHg 100%
    09:00 +9°C° 0.1 mm 3 mps 695 mmHg 100%
    10:00 +10°C° 0 mm 3 mps 696 mmHg 100%
    11:00 +12°C° 0 mm 3 mps 696 mmHg 95%
    12:00 +14°C° 0 mm 2 mps 696 mmHg 90%
    13:00 +10°C° 2.5 mm 5 mps 696 mmHg 100%
    14:00 +14°C° 0.7 mm 2 mps 696 mmHg 92%
    15:00 +13°C° 0.5 mm 5 mps 696 mmHg 94%
    16:00 +10°C° 2 mm 6 mps 696 mmHg 100%
    17:00 +13°C° 1.3 mm 3 mps 696 mmHg 94%
    18:00 +14°C° 0 mm 4 mps 695 mmHg 88%
    19:00 +13°C° 0 mm 4 mps 695 mmHg 88%
    20:00 +12°C° 0 mm 3 mps 695 mmHg 95%
    21:00 +11°C° 0 mm 3 mps 695 mmHg 94%
    22:00 +12°C° 0 mm 2 mps 696 mmHg 98%
    23:00 +10°C° 0 mm 3 mps 696 mmHg 96%

    Tomorrow, 24 June, Sunday

    Time Temperature Precipitation Wind Pressure Humidity
    00:00 +10°C° 0 mm 3 mps 696 mmHg 94%
    01:00 +9°C° 0 mm 2 mps 695 mmHg 97%
    02:00 +9°C° 0 mm 2 mps 696 mmHg 94%
    03:00 +9°C° 0 mm 2 mps 696 mmHg 92%
    04:00 +9°C° 0 mm 2 mps 695 mmHg 92%
    05:00 +9°C° 0 mm 2 mps 696 mmHg 91%
    06:00 +9°C° 0 mm 2 mps 696 mmHg 95%
    07:00 +10°C° 0 mm 2 mps 697 mmHg 97%
    08:00 +12°C° 0 mm 3 mps 697 mmHg 97%
    09:00 +13°C° 0 mm 3 mps 697 mmHg 90%
    10:00 +14°C° 0 mm 3 mps 698 mmHg 86%
    11:00 +15°C° 0 mm 4 mps 698 mmHg 85%
    12:00 +16°C° 0 mm 3 mps 698 mmHg 84%
    13:00 +17°C° 0 mm 2 mps 698 mmHg 80%
    14:00 +17°C° 0 mm 2 mps 698 mmHg 88%
    15:00 +16°C° 1 mm 3 mps 698 mmHg 99%
    16:00 +14°C° 1.4 mm 3 mps 697 mmHg 100%
    17:00 +13°C° 2.7 mm 3 mps 697 mmHg 100%
    18:00 +14°C° 2.4 mm 2 mps 697 mmHg 100%
    19:00 +14°C° 0.3 mm 2 mps 697 mmHg 100%
    20:00 +14°C° 0.1 mm 1 mps 698 mmHg 100%
    21:00 +13°C° 0.5 mm 1 mps 698 mmHg 100%
    22:00 +12°C° 0 mm 1 mps 698 mmHg 100%
    23:00 +12°C° 0 mm 1 mps 698 mmHg 97%

    Day after tomorrow, 25 June, Monday

    Time Temperature Precipitation Wind Pressure Humidity
    00:00 +13°C° 0 mm 1 mps 698 mmHg 93%
    01:00 +13°C° 0 mm 1 mps 698 mmHg 91%
    02:00 +13°C° 0 mm 1 mps 698 mmHg 87%
    03:00 +13°C° 0 mm 1 mps 698 mmHg 84%
    04:00 +13°C° 0 mm 1 mps 698 mmHg 82%
    05:00 +12°C° 0 mm 1 mps 698 mmHg 82%
    06:00 +12°C° 0 mm 1 mps 698 mmHg 84%
    07:00 +12°C° 0 mm 0 mps 699 mmHg 94%
    08:00 +14°C° 0 mm 1 mps 699 mmHg 93%
    09:00 +15°C° 0 mm 1 mps 699 mmHg 94%
    10:00 +16°C° 0 mm 2 mps 700 mmHg 93%
    11:00 +17°C° 0 mm 2 mps 700 mmHg 94%
    12:00 +18°C° 0 mm 2 mps 700 mmHg 92%
    13:00 +17°C° 0.3 mm 2 mps 700 mmHg 94%
    14:00 +18°C° 0.1 mm 2 mps 699 mmHg 92%
    15:00 +14°C° 2.9 mm 3 mps 699 mmHg 100%
    16:00 +17°C° 0.5 mm 4 mps 699 mmHg 98%
    17:00 +17°C° 0 mm 4 mps 700 mmHg 98%
    18:00 +17°C° 0.5 mm 2 mps 700 mmHg 97%
    19:00 +14°C° 3.1 mm 4 mps 700 mmHg 100%
    20:00 +15°C° 0.3 mm 2 mps 700 mmHg 100%
    21:00 +14°C° 0.1 mm 1 mps 700 mmHg 100%
    22:00 +14°C° 0 mm 1 mps 700 mmHg 100%
    23:00 +14°C° 0 mm 1 mps 700 mmHg 96%

    26 June, Tuesday

    Time Temperature Precipitation Wind Pressure Humidity
    00:00 +14°C° 0 mm 1 mps 700 mmHg 96%
    01:00 +13°C° 0 mm 1 mps 700 mmHg 100%
    02:00 +13°C° 0 mm 1 mps 700 mmHg 100%
    03:00 +13°C° 0 mm 1 mps 700 mmHg 100%
    04:00 +12°C° 0 mm 0 mps 700 mmHg 100%
    05:00 +13°C° 0 mm 1 mps 701 mmHg 100%
    06:00 +13°C° 0 mm 1 mps 701 mmHg 100%
    07:00 +14°C° 0 mm 1 mps 701 mmHg 100%
    08:00 +15°C° 0 mm 2 mps 701 mmHg 100%
    09:00 +16°C° 0 mm 2 mps 702 mmHg 100%
    10:00 +16°C° 0 mm 3 mps 702 mmHg 100%
    11:00 +17°C° 0.4 mm 3 mps 702 mmHg 100%
    12:00 +17°C° 0.4 mm 4 mps 702 mmHg 99%
    13:00 +18°C° 0 mm 4 mps 702 mmHg 97%
    14:00 +18°C° 0 mm 3 mps 702 mmHg 93%

    27 June, Wednesday

    Time Temperature Precipitation Wind Pressure Humidity

    28 June, Thursday

    Time Temperature Precipitation Wind Pressure Humidity
    Show more